This demonstration page uses our WeatherBlox Daily Observations layout. Learn more.

Left ArrowRight Arrow

Hourly Observations for May 27, 2017

Temp ( °F °C ) Dew Point ( °F °C ) Humidity (%) Winds ( mph kmh ) Pressure ( in mb ) Visibility ( mi km ) Precip ( " mm )
12:53 am 00:53 Clear 74 23.3 29 -1.7 19 19 WSW 8 13 29.70 1006 10 16 0.00 0.00
1:53 am 01:53 Clear 73 22.8 29 -1.7 19 19 NW 6 9 29.72 1006 10 16 0.00 0.00
2:53 am 02:53 Clear 72 22.2 31 -0.6 22 22 SSE 6 9 29.72 1006 10 16 0.00 0.00
3:53 am 03:53 Clear 68 20 34 1.1 28 28 SE 8 13 29.72 1006 10 16 0.00 0.00
4:53 am 04:53 Clear 68 20 43 6.1 40 40 SSE 10 17 29.72 1006 10 16 0.00 0.00
5:53 am 05:53 Clear 65 18.3 41 5 42 42 SW 6 9 29.73 1007 10 16 0.00 0.00
6:53 am 06:53 Sunny 63 17.2 35 1.7 35 35 NNE 5 7 29.76 1008 10 16 0.00 0.00
7:53 am 07:53 Sunny 68 20 39 3.9 35 35 Calm 29.78 1008 10 16 0.00 0.00
8:53 am 08:53 Sunny 78 25.6 35 1.7 21 21 WNW 8 13 29.79 1009 10 16 0.00 0.00
9:53 am 09:53 Sunny 87 30.6 30 -1.1 13 13 WNW 16 26 29.79 1009 10 16 0.00 0.00
10:53 am 10:53 Sunny 90 32.2 30 -1.1 12 12 NW 15 24 29.79 1009 10 16 0.00 0.00
11:53 am 11:53 Sunny 93 33.9 25 -3.9 8 8 W 17 28 29.78 1009 10 16 0.00 0.00
12:49 pm 12:49 Sunny 97 36 21 -6 6 6 WNW 10 17 29.68 1005 10 16 0.00 0.00
12:53 pm 12:53 Sunny 95 35 23 -5 7 7 W 17 28 29.77 1008 10 16 0.00 0.00
1:53 pm 13:53 Sunny 98 36.7 23 -5 7 7 W 17 28 29.75 1008 10 16 0.00 0.00
2:53 pm 14:53 Sunny 98 36.7 23 -5 7 7 W 18 30 29.73 1007 10 16 0.00 0.00
3:53 pm 15:53 Sunny 101 38.3 24 -4.4 6 6 W 24 39 29.70 1006 10 16 0.00 0.00
4:53 pm 16:53 Sunny 100 37.8 24 -4.4 7 7 W 18 30 29.69 1005 10 16 0.00 0.00
5:53 pm 17:53 Sunny 100 37.8 24 -4.4 7 7 W 20 31 29.68 1005 10 16 0.00 0.00
6:53 pm 18:53 Sunny 98 36.7 24 -4.4 7 7 W 20 31 29.67 1005 10 16 0.00 0.00
7:53 pm 19:53 Sunny 96 35.6 23 -5 7 7 WNW 21 33 29.67 1005 10 16 0.00 0.00
8:53 pm 20:53 Clear 94 34.4 22 -5.6 7 7 WNW 18 30 29.67 1005 10 16 0.00 0.00
9:53 pm 21:53 Clear 87 30.6 20 -6.7 8 8 WNW 12 19 29.70 1006 10 16 0.00 0.00
10:53 pm 22:53 Clear 80 26.7 21 -6.1 11 11 NW 10 17 29.72 1007 10 16 0.00 0.00
11:53 pm 23:53 Clear 80 26.7 21 -6.1 11 11 NW 9 15 29.73 1007 10 16 0.00 0.00

Powered by AerisWeather